This is the latest recevied weather packets stored in our database for station/object KB3UMW-13. If no packets are shown the sender has not sent any weather packets the latest 10 day(s).
| Time | Temp. | Humidity | Pressure | Rain* | Wind** | Luminosity | Snow |
|---|---|---|---|---|---|---|---|
| 1777967978 | 10° C | 87% | 1011.5 hPa | 0 mm | - | 0 W/m² | - |
| 1777967675 | 10.56° C | 86% | 1011.4 hPa | 0 mm | - | 0 W/m² | - |
| 1777967372 | 11.11° C | 85% | 1011.5 hPa | 0 mm | - | 0 W/m² | - |
| 1777967070 | 11.67° C | 84% | 1011.6 hPa | 0 mm | - | 0 W/m² | - |
| 1777966767 | 12.22° C | 82% | 1011.4 hPa | 0 mm | - | 0 W/m² | - |
| 1777966465 | 13.33° C | 78% | 1011.3 hPa | 0 mm | - | 0 W/m² | - |
| 1777966161 | 13.89° C | 77% | 1011.3 hPa | 0 mm | - | 0 W/m² | - |
| 1777965857 | 13.89° C | 73% | 1011.4 hPa | 0 mm | - | 0 W/m² | - |
| 1777965554 | 13.89° C | 71% | 1011.4 hPa | 0 mm | - | 0 W/m² | - |
| 1777965250 | 13.33° C | 75% | 1011.1 hPa | 0 mm | - | 0 W/m² | - |
| 1777964948 | 12.22° C | 74% | 1011.3 hPa | 0 mm | - | 0 W/m² | - |
| 1777964644 | 11.11° C | 82% | 1011.3 hPa | 0 mm | - | 0 W/m² | - |
| 1777964340 | 8.33° C | 95% | 1011.4 hPa | 0 mm | - | 0 W/m² | - |
| 1777964037 | 7.22° C | 98% | 1011.3 hPa | 0 mm | - | 0 W/m² | - |
| 1777963734 | 6.67° C | 99% | 1011.3 hPa | 0 mm | - | 0 W/m² | - |
| 1777963431 | 6.11° C | 99% | 1011.4 hPa | 0 mm | - | 0 W/m² | - |
| 1777963129 | 5.56° C | 99% | 1011.3 hPa | 0 mm | - | 0 W/m² | - |
| 1777962824 | 5.56° C | 99% | 1011 hPa | 0 mm | - | 0 W/m² | - |
| 1777962521 | 5.56° C | 99% | 1011.2 hPa | 0 mm | - | 0 W/m² | - |
| 1777962219 | 5.56° C | 99% | 1011.5 hPa | 0 mm | - | 0 W/m² | - |
| 1777961916 | 5.56° C | 99% | 1011.3 hPa | 0 mm | - | 0 W/m² | - |
| 1777961614 | 5° C | 99% | 1011.5 hPa | 0 mm | - | 0 W/m² | - |
| 1777961311 | 5° C | 99% | 1011.2 hPa | 0 mm | - | 0 W/m² | - |
| 1777961008 | 5° C | 99% | 1011.2 hPa | 0 mm | - | 0 W/m² | - |
| 1777960703 | 5° C | 99% | 1011.3 hPa | 0 mm | - | 0 W/m² | - |
* Rain latest hour (hover to see other rain measurements)
** Current wind speed in m/s (hover to see current wind gust speed)